This demonstration page uses our WeatherBlox Daily Observations layout. Learn more.

39.92423, -83.80882

Hourly Observations for June 4, 2019

Temp ( °F °C ) Dew Point ( °F °C ) Humidity (%) Winds ( mph kmh ) Pressure ( in mb ) Visibility ( mi km ) Precip ( " mm )
12:56 am 00:56 Clear 56 13.3 49 9.4 77 77 ESE 5 7 30.13 1020 10 16.0934 0 0
1:56 am 01:56 Clear 55 12.8 48 8.9 77 77 ESE 5 7 30.12 1020 10 16.0934 0 0
3:56 am 03:56 Clear 54 12.2 47 8.3 77 77 SE 7 11 30.12 1020 10 16.0934 0 0
4:56 am 04:56 Clear 54 12.2 47 8.3 77 77 SE 3 6 30.13 1020 10 16.0934 0 0
5:56 am 05:56 Clear 52 11.1 47 8.3 83 83 Calm 30.14 1021 10 16.0934 0 0
6:56 am 06:56 Sunny 53 11.7 49 9.4 86 86 SSE 5 7 30.14 1021 10 16.0934 0 0
7:56 am 07:56 Sunny 59 15 52 11.1 78 78 Calm 30.14 1021 10 16.0934 0 0
8:56 am 08:56 Sunny 63 17.2 54 12.2 73 73 SSW 6 9 30.14 1021 10 16.0934 0 0
9:56 am 09:56 Sunny 65 18.3 54 12.2 68 68 SSW 7 11 30.13 1020 10 16.0934 0 0
10:56 am 10:56 Sunny 68 20 55 12.8 63 63 VRB 5 7 30.1 1019 10 16.0934 0 0
11:56 am 11:56 Sunny 73 22.8 55 12.8 53 53 S 10 17 30.09 1019 10 16.0934 0 0
12:56 pm 12:56 Sunny 74 23.3 55 12.8 52 52 SSW 7 11 30.07 1018 10 16.0934 0 0
1:56 pm 13:56 Sunny 77 25 56 13.3 48 48 S 8 13 30.06 1018 10 16.0934 0 0
2:56 pm 14:56 Sunny 79 26.1 57 13.9 47 47 SSW 8 13 30.03 1017 10 16.0934 0 0
3:56 pm 15:56 Sunny 79 26.1 57 13.9 47 47 SSW 9 15 30.01 1016 10 16.0934 0 0
4:56 pm 16:56 Sunny 79 26.1 56 13.3 45 45 SSW 10 17 29.98 1015 10 16.0934 0 0
5:56 pm 17:56 Sunny 78 25.6 57 13.9 48 48 SSW 9 15 29.97 1015 10 16.0934 0 0
6:56 pm 18:56 Sunny 76 24.4 57 13.9 52 52 SSW 7 11 29.95 1014 10 16.0934 0 0
7:56 pm 19:56 Sunny 75 23.9 56 13.3 52 52 SSW 7 11 29.93 1013 10 16.0934 0 0
8:56 pm 20:56 Sunny 72 22.2 57 13.9 59 59 S 3 6 29.92 1013 10 16.0934 0 0
9:56 pm 21:56 Partly Cloudy 71 21.7 56 13.3 59 59 SSW 6 9 29.91 1013 10 16.0934 0 0
10:56 pm 22:56 Clear 69 20.6 56 13.3 63 63 S 5 7 29.92 1013 10 16.0934 0 0
11:56 pm 23:56 Cloudy 69 20.6 57 13.9 66 66 S 6 9 29.91 1013 10 16.0934 0 0

Powered by AerisWeather